sat.trackr.live / text

‹ back to catalog

ONEWEB-0362

NORAD 49288 · 2021-090K

PAYLOAD ACTIVE UNKNOWN

§ Identity

Operator
Country
UK
Launch date
2021-10-14
Launch site
VOSTO
Launch vehicle
Mass (kg)
RCS (m²)

Purposes: comms

External: N2YO · Heavens-Above · Gunter

§ Orbital elements

Epoch: 2026-09-20T00:34:37.087968Z

Period
109.11 min
Inclination
87.9105°
Eccentricity
0.0001679
Mean motion
13.19726108 rev/d
Perigee alt
1,184.5 km
Apogee alt
1,187.0 km
Semi-major
7,563.9 km
B*
3.4515e-5
RAAN
286.0804°
Arg perigee
90.0485°
Mean anomaly
270.0840°
Rev number
23,942

§ Raw data

ONEWEB-03621 49288U 21090K   26263.02404037  .00000027  00000+0  34515-4 0  99922 49288  87.9105 286.0804 0001679  90.0485 270.0840 13.19726108239429

JSON: /api/v1/satellites/49288 · /tle

For live sub-satellite position, see the globe view (requires WebGL).

§ Visibility from observer

Set your observer location to see the next 7 days of passes ≥ 10°. The values pass through the URL so the page stays shareable.

No JS? Fill the form by hand. The geolocation button needs JavaScript.